Time,TemperatureF,DewpointF,PressureIn,WindDirection,WindDirectionDegrees,WindSpeedMPH,WindSpeedGustMPH,Humidity,HourlyPrecipIn,Conditions,Clouds,dailyrainin,SoftwareType,DateUTC
2013-03-22 00:03:00,21.0,-17.1,30.09,NNE,17,0.0,0.0,17,0.00,CLR,OVC,0.00,WeatherDisplay:10.37,2013-03-22 05:03:00,
2013-03-22 00:08:00,20.8,-17.2,30.09,NNE,14,0.0,0.0,17,0.00,CLR,OVC,0.00,WeatherDisplay:10.37,2013-03-22 05:08:00,
2013-03-22 00:13:00,20.7,-17.4,30.09,NNE,15,0.0,0.0,17,0.00,CLR,OVC,0.00,WeatherDisplay:10.37,2013-03-22 05:13:00,
2013-03-22 00:19:00,20.7,-17.4,30.09,NNE,15,0.0,0.0,17,0.00,CLR,OVC,0.00,WeatherDisplay:10.37,2013-03-22 05:19:00,
2013-03-22 00:24:00,20.5,-14.3,30.09,NNE,15,0.0,0.0,20,0.00,CLR,OVC,0.00,WeatherDisplay:10.37,2013-03-22 05:24:00,
2013-03-22 00:29:00,20.5,-14.3,30.06,NNE,17,0.0,0.0,20,0.00,CLR,OVC,0.00,WeatherDisplay:10.37,2013-03-22 05:29:00,
2013-03-22 00:34:00,20.3,-14.5,30.06,NNE,15,0.0,0.0,20,0.00,CLR,OVC,0.00,WeatherDisplay:10.37,2013-03-22 05:34:00,
2013-03-22 00:39:00,20.3,-14.5,30.06,NNE,16,0.0,0.0,20,0.00,CLR,OVC,0.00,WeatherDisplay:10.37,2013-03-22 05:39:00,
2013-03-22 00:44:00,20.3,-14.5,30.09,NNE,15,0.0,0.0,20,0.00,CLR,OVC,0.00,WeatherDisplay:10.37,2013-03-22 05:44:00,
2013-03-22 00:49:00,20.3,-14.5,30.09,NNE,17,0.0,0.0,20,0.00,CLR,OVC,0.00,WeatherDisplay:10.37,2013-03-22 05:49:00,
2013-03-22 00:54:00,20.3,-14.5,30.09,NNE,17,0.0,0.0,20,0.00,CLR,OVC,0.00,WeatherDisplay:10.37,2013-03-22 05:54:00,
2013-03-22 00:59:00,20.1,-14.6,30.09,NNE,15,0.0,0.0,20,0.00,CLR,OVC,0.00,WeatherDisplay:10.37,2013-03-22 05:59:00,
2013-03-22 01:04:00,20.1,-14.6,30.09,NNE,15,0.0,0.0,20,0.00,CLR,OVC,0.00,WeatherDisplay:10.37,2013-03-22 06:04:00,
2013-03-22 01:09:00,20.1,-14.6,30.09,NNE,17,0.0,0.0,20,0.00,CLR,OVC,0.00,WeatherDisplay:10.37,2013-03-22 06:09:00,
2013-03-22 01:14:00,19.9,-14.8,30.09,NNE,15,0.0,0.0,20,0.00,CLR,OVC,0.00,WeatherDisplay:10.37,2013-03-22 06:14:00,
2013-03-22 01:19:00,19.9,-14.8,30.09,NNE,16,0.0,0.0,20,0.00,CLR,OVC,0.00,WeatherDisplay:10.37,2013-03-22 06:19:00,
2013-03-22 01:24:00,19.9,-14.8,30.09,NNE,15,0.0,0.0,20,0.00,CLR,OVC,0.00,WeatherDisplay:10.37,2013-03-22 06:24:00,
2013-03-22 01:29:00,19.9,-14.8,30.06,NNE,15,0.0,0.0,20,0.00,CLR,OVC,0.00,WeatherDisplay:10.37,2013-03-22 06:29:00,
2013-03-22 01:34:00,19.8,-14.9,30.06,NNE,16,0.0,0.0,20,0.00,CLR,OVC,0.00,WeatherDisplay:10.37,2013-03-22 06:34:00,
2013-03-22 01:39:00,19.8,-14.9,30.06,North,357,0.0,0.0,20,0.00,CLR,OVC,0.00,WeatherDisplay:10.37,2013-03-22 06:39:00,
2013-03-22 01:44:00,19.8,-14.9,30.09,North,2,0.0,0.0,20,0.00,CLR,OVC,0.00,WeatherDisplay:10.37,2013-03-22 06:44:00,
2013-03-22 01:49:00,19.8,-13.0,30.09,North,357,0.0,0.0,22,0.00,CLR,OVC,0.00,WeatherDisplay:10.37,2013-03-22 06:49:00,
2013-03-22 01:54:00,19.8,-13.0,30.09,North,0,0.0,0.0,22,0.00,CLR,OVC,0.00,WeatherDisplay:10.37,2013-03-22 06:54:00,
2013-03-22 01:59:00,19.8,-13.0,30.09,North,0,0.0,0.0,22,0.00,CLR,OVC,0.00,WeatherDisplay:10.37,2013-03-22 06:59:00,
2013-03-22 02:04:00,19.8,-13.0,30.09,North,357,0.0,0.0,22,0.00,CLR,OVC,0.00,WeatherDisplay:10.37,2013-03-22 07:04:00,
2013-03-22 02:09:00,19.6,-13.2,30.09,North,357,0.0,0.0,22,0.00,CLR,OVC,0.00,WeatherDisplay:10.37,2013-03-22 07:09:00,
2013-03-22 02:14:00,19.6,-13.2,30.09,North,357,0.0,0.0,22,0.00,CLR,OVC,0.00,WeatherDisplay:10.37,2013-03-22 07:14:00,
2013-03-22 02:19:00,19.4,-12.4,30.09,North,357,0.0,0.0,23,0.00,CLR,OVC,0.00,WeatherDisplay:10.37,2013-03-22 07:19:00,
2013-03-22 02:24:00,19.4,-12.4,30.09,North,357,0.0,0.0,23,0.00,CLR,OVC,0.00,WeatherDisplay:10.37,2013-03-22 07:24:00,
2013-03-22 02:29:00,19.4,-12.4,30.09,North,2,0.0,0.0,23,0.00,CLR,OVC,0.00,WeatherDisplay:10.37,2013-03-22 07:29:00,
2013-03-22 02:34:00,19.4,-12.4,30.09,North,1,0.0,0.0,23,0.00,CLR,OVC,0.00,WeatherDisplay:10.37,2013-03-22 07:34:00,
2013-03-22 02:39:00,19.2,-12.6,30.09,North,0,0.0,0.0,23,0.00,CLR,OVC,0.00,WeatherDisplay:10.37,2013-03-22 07:39:00,
2013-03-22 02:44:00,19.2,-10.9,30.09,North,0,0.0,0.0,25,0.00,CLR,OVC,0.00,WeatherDisplay:10.37,2013-03-22 07:44:00,
2013-03-22 02:49:00,19.0,-11.1,30.09,North,1,0.0,0.0,25,0.00,CLR,OVC,0.00,WeatherDisplay:10.37,2013-03-22 07:49:00,
2013-03-22 02:54:00,19.0,-11.1,30.09,North,0,0.0,0.0,25,0.00,CLR,OVC,0.00,WeatherDisplay:10.37,2013-03-22 07:54:00,
2013-03-22 02:59:00,19.0,-11.1,30.09,North,0,0.0,0.0,25,0.00,CLR,OVC,0.00,WeatherDisplay:10.37,2013-03-22 07:59:00,
2013-03-22 03:04:00,18.9,-11.2,30.09,North,357,0.0,0.0,25,0.00,CLR,OVC,0.00,WeatherDisplay:10.37,2013-03-22 08:04:00,
2013-03-22 03:09:00,18.9,-11.2,30.09,North,1,0.0,0.0,25,0.00,CLR,OVC,0.00,WeatherDisplay:10.37,2013-03-22 08:09:00,
2013-03-22 03:14:00,18.7,-11.4,30.09,North,0,0.0,0.0,25,0.00,CLR,OVC,0.00,WeatherDisplay:10.37,2013-03-22 08:14:00,
2013-03-22 03:19:00,18.7,-11.4,30.09,North,2,0.0,0.0,25,0.00,CLR,OVC,0.00,WeatherDisplay:10.37,2013-03-22 08:19:00,
2013-03-22 03:24:00,18.5,-9.3,30.09,North,1,0.0,0.0,28,0.00,CLR,OVC,0.00,WeatherDisplay:10.37,2013-03-22 08:24:00,
2013-03-22 03:29:00,18.5,-9.3,30.09,North,1,0.0,0.0,28,0.00,CLR,OVC,0.00,WeatherDisplay:10.37,2013-03-22 08:29:00,
2013-03-22 03:34:00,18.3,-9.4,30.09,North,0,0.0,0.0,28,0.00,CLR,OVC,0.00,WeatherDisplay:10.37,2013-03-22 08:34:00,
2013-03-22 03:39:00,18.3,-9.4,30.09,North,0,0.0,0.0,28,0.00,CLR,OVC,0.00,WeatherDisplay:10.37,2013-03-22 08:39:00,
2013-03-22 03:44:00,18.1,-9.6,30.09,North,357,0.0,0.0,28,0.00,CLR,OVC,0.00,WeatherDisplay:10.37,2013-03-22 08:44:00,
2013-03-22 03:49:00,18.0,-9.7,30.09,North,357,0.0,0.0,28,0.00,CLR,OVC,0.00,WeatherDisplay:10.37,2013-03-22 08:49:00,
2013-03-22 03:54:00,17.8,-9.9,30.09,North,0,0.0,0.0,28,0.00,CLR,OVC,0.00,WeatherDisplay:10.37,2013-03-22 08:54:00,
2013-03-22 03:59:00,17.6,-8.0,30.06,North,0,0.0,0.0,31,0.00,CLR,OVC,0.00,WeatherDisplay:10.37,2013-03-22 08:59:00,
2013-03-22 04:04:00,17.6,-8.0,30.06,North,0,0.0,0.0,31,0.00,CLR,OVC,0.00,WeatherDisplay:10.37,2013-03-22 09:04:00,
2013-03-22 04:09:00,17.6,-8.0,30.06,North,357,0.0,0.0,31,0.00,CLR,OVC,0.00,WeatherDisplay:10.37,2013-03-22 09:09:00,
2013-03-22 04:14:00,17.4,-8.1,30.06,North,1,0.0,0.0,31,0.00,CLR,OVC,0.00,WeatherDisplay:10.37,2013-03-22 09:14:00,
2013-03-22 04:19:00,17.4,-6.8,30.06,North,357,0.0,0.0,33,0.00,CLR,OVC,0.00,WeatherDisplay:10.37,2013-03-22 09:19:00,
2013-03-22 04:24:00,17.4,-6.8,30.06,North,0,0.0,0.0,33,0.00,CLR,OVC,0.00,WeatherDisplay:10.37,2013-03-22 09:24:00,
2013-03-22 04:29:00,17.4,-6.8,30.06,North,357,0.0,0.0,33,0.00,CLR,OVC,0.00,WeatherDisplay:10.37,2013-03-22 09:29:00,
2013-03-22 04:34:00,17.2,-7.0,30.06,North,1,0.0,0.0,33,0.00,CLR,OVC,0.00,WeatherDisplay:10.37,2013-03-22 09:34:00,
2013-03-22 04:39:00,17.1,-6.5,30.06,North,357,0.0,0.0,34,0.00,CLR,OVC,0.00,WeatherDisplay:10.37,2013-03-22 09:39:00,
2013-03-22 04:44:00,17.1,-6.5,30.09,North,1,0.0,0.0,34,0.00,CLR,OVC,0.00,WeatherDisplay:10.37,2013-03-22 09:44:00,
2013-03-22 04:49:00,16.9,-6.7,30.09,North,0,0.0,0.0,34,0.00,CLR,OVC,0.00,WeatherDisplay:10.37,2013-03-22 09:49:00,
2013-03-22 04:54:00,16.9,-6.7,30.09,North,2,0.0,0.0,34,0.00,CLR,OVC,0.00,WeatherDisplay:10.37,2013-03-22 09:54:00,
2013-03-22 04:59:00,16.9,-6.7,30.09,North,357,0.0,0.0,34,0.00,CLR,OVC,0.00,WeatherDisplay:10.37,2013-03-22 09:59:00,
2013-03-22 05:04:00,16.9,-6.7,30.09,North,1,0.0,0.0,34,0.00,CLR,OVC,0.00,WeatherDisplay:10.37,2013-03-22 10:04:00,
2013-03-22 05:09:00,16.7,-6.9,30.09,North,0,0.0,0.0,34,0.00,CLR,OVC,0.00,WeatherDisplay:10.37,2013-03-22 10:09:00,
2013-03-22 05:14:00,16.7,-6.9,30.09,North,357,0.0,0.0,34,0.00,CLR,OVC,0.00,WeatherDisplay:10.37,2013-03-22 10:14:00,
2013-03-22 05:19:00,16.7,-6.9,30.09,North,357,0.0,0.0,34,0.00,CLR,OVC,0.00,WeatherDisplay:10.37,2013-03-22 10:19:00,
2013-03-22 05:24:00,16.9,-6.7,30.09,North,357,0.0,0.0,34,0.00,CLR,OVC,0.00,WeatherDisplay:10.37,2013-03-22 10:24:00,
2013-03-22 05:29:00,17.1,-6.5,30.09,North,2,0.0,0.0,34,0.00,CLR,OVC,0.00,WeatherDisplay:10.37,2013-03-22 10:29:00,
2013-03-22 05:34:00,16.9,-6.7,30.09,North,1,0.0,0.0,34,0.00,CLR,OVC,0.00,WeatherDisplay:10.37,2013-03-22 10:34:00,
2013-03-22 05:39:00,16.9,-6.7,30.09,North,357,0.0,0.0,34,0.00,CLR,OVC,0.00,WeatherDisplay:10.37,2013-03-22 10:39:00,
2013-03-22 05:44:00,16.9,-6.7,30.09,North,2,0.0,0.0,34,0.00,CLR,OVC,0.00,WeatherDisplay:10.37,2013-03-22 10:44:00,
2013-03-22 05:49:00,16.9,-6.1,30.09,North,357,0.0,0.0,35,0.00,CLR,OVC,0.00,WeatherDisplay:10.37,2013-03-22 10:49:00,
2013-03-22 05:54:00,16.9,-6.1,30.09,North,1,0.0,0.0,35,0.00,CLR,OVC,0.00,WeatherDisplay:10.37,2013-03-22 10:54:00,
2013-03-22 05:59:00,16.7,-6.3,30.12,North,0,0.0,0.0,35,0.00,CLR,OVC,0.00,WeatherDisplay:10.37,2013-03-22 10:59:00,
2013-03-22 06:04:00,16.5,-6.4,30.12,North,2,0.0,0.0,35,0.00,CLR,OVC,0.00,WeatherDisplay:10.37,2013-03-22 11:04:00,
2013-03-22 06:09:00,16.5,-6.4,30.12,North,357,0.0,0.0,35,0.00,CLR,OVC,0.00,WeatherDisplay:10.37,2013-03-22 11:09:00,
2013-03-22 06:14:00,16.5,-6.4,30.09,North,357,0.0,0.0,35,0.00,CLR,OVC,0.00,WeatherDisplay:10.37,2013-03-22 11:14:00,
2013-03-22 06:19:00,16.2,-6.7,30.09,North,357,0.0,0.0,35,0.00,CLR,OVC,0.00,WeatherDisplay:10.37,2013-03-22 11:19:00,
2013-03-22 06:24:00,16.2,-6.7,30.09,North,1,0.0,0.0,35,0.00,CLR,OVC,0.00,WeatherDisplay:10.37,2013-03-22 11:24:00,
2013-03-22 06:29:00,16.2,-6.7,30.12,North,0,0.0,0.0,35,0.00,CLR,OVC,0.00,WeatherDisplay:10.37,2013-03-22 11:29:00,
2013-03-22 06:34:00,16.2,-6.7,30.12,North,1,0.0,0.0,35,0.00,CLR,OVC,0.00,WeatherDisplay:10.37,2013-03-22 11:34:00,
2013-03-22 06:39:00,16.2,-6.2,30.12,North,0,0.0,0.0,36,0.00,CLR,OVC,0.00,WeatherDisplay:10.37,2013-03-22 11:39:00,
2013-03-22 06:44:00,16.2,-6.2,30.12,North,357,0.0,0.0,36,0.00,CLR,OVC,0.00,WeatherDisplay:10.37,2013-03-22 11:44:00,
2013-03-22 06:49:00,16.0,-6.3,30.12,North,357,0.0,0.0,36,0.00,CLR,OVC,0.00,WeatherDisplay:10.37,2013-03-22 11:49:00,
2013-03-22 06:54:00,16.0,-6.3,30.12,North,1,0.0,0.0,36,0.00,CLR,OVC,0.00,WeatherDisplay:10.37,2013-03-22 11:54:00,
2013-03-22 06:59:00,15.8,-6.5,30.12,North,357,0.0,0.0,36,0.00,CLR,OVC,0.00,WeatherDisplay:10.37,2013-03-22 11:59:00,
2013-03-22 07:04:00,15.8,-6.5,30.12,North,357,0.0,0.0,36,0.00,CLR,OVC,0.00,WeatherDisplay:10.37,2013-03-22 12:04:00,
2013-03-22 07:09:00,15.8,-5.9,30.12,North,357,0.0,0.0,37,0.00,CLR,OVC,0.00,WeatherDisplay:10.37,2013-03-22 12:09:00,
2013-03-22 07:14:00,16.0,-6.3,30.12,North,0,0.0,0.0,36,0.00,CLR,OVC,0.00,WeatherDisplay:10.37,2013-03-22 12:14:00,
2013-03-22 07:19:00,16.0,-6.3,30.12,North,357,0.0,0.0,36,0.00,CLR,OVC,0.00,WeatherDisplay:10.37,2013-03-22 12:19:00,
2013-03-22 07:24:00,16.0,-6.3,30.12,North,357,0.0,0.0,36,0.00,CLR,OVC,0.00,WeatherDisplay:10.37,2013-03-22 12:24:00,
2013-03-22 07:29:00,16.0,-5.8,30.12,North,1,0.0,0.0,37,0.00,CLR,OVC,0.00,WeatherDisplay:10.37,2013-03-22 12:29:00,
2013-03-22 07:34:00,16.2,-5.6,30.12,North,1,0.0,0.0,37,0.00,CLR,OVC,0.00,WeatherDisplay:10.37,2013-03-22 12:34:00,
2013-03-22 07:39:00,16.5,-5.3,30.12,North,1,0.0,0.0,37,0.00,CLR,OVC,0.00,WeatherDisplay:10.37,2013-03-22 12:39:00,
2013-03-22 07:44:00,16.9,-4.4,30.12,North,2,0.0,0.0,38,0.00,CLR,OVC,0.00,WeatherDisplay:10.37,2013-03-22 12:44:00,
2013-03-22 07:49:00,17.6,-3.7,30.12,North,0,0.0,0.0,38,0.00,CLR,OVC,0.00,WeatherDisplay:10.37,2013-03-22 12:49:00,
2013-03-22 07:54:00,18.1,-3.3,30.12,North,357,0.0,0.0,38,0.00,CLR,OVC,0.00,WeatherDisplay:10.37,2013-03-22 12:54:00,
2013-03-22 07:59:00,18.7,-2.2,30.12,North,357,0.0,0.0,39,0.00,CLR,OVC,0.00,WeatherDisplay:10.37,2013-03-22 12:59:00,
2013-03-22 08:04:00,19.4,-1.6,30.12,North,2,0.0,0.0,39,0.00,CLR,OVC,0.00,WeatherDisplay:10.37,2013-03-22 13:04:00,
2013-03-22 08:09:00,20.3,-0.8,30.12,North,357,0.0,0.0,39,0.00,CLR,OVC,0.00,WeatherDisplay:10.37,2013-03-22 13:09:00,
2013-03-22 08:14:00,21.0,0.4,30.12,North,2,0.0,0.0,40,0.00,CLR,OVC,0.00,WeatherDisplay:10.37,2013-03-22 13:14:00,
2013-03-22 08:19:00,21.7,1.1,30.12,North,357,0.0,0.0,40,0.00,CLR,OVC,0.00,WeatherDisplay:10.37,2013-03-22 13:19:00,
2013-03-22 08:24:00,22.5,1.7,30.12,NNE,17,0.0,0.0,40,0.00,CLR,OVC,0.00,WeatherDisplay:10.37,2013-03-22 13:24:00,
2013-03-22 08:29:00,23.0,1.7,30.15,NNE,32,0.0,0.0,39,0.00,CLR,OVC,0.00,WeatherDisplay:10.37,2013-03-22 13:29:00,
2013-03-22 08:34:00,23.4,1.4,30.15,North,357,0.0,0.0,38,0.00,CLR,OVC,0.00,WeatherDisplay:10.37,2013-03-22 13:34:00,
2013-03-22 08:39:00,23.9,1.4,30.15,NE,41,0.0,0.0,37,0.00,CLR,OVC,0.00,WeatherDisplay:10.37,2013-03-22 13:39:00,
2013-03-22 08:44:00,24.4,1.3,30.12,NE,42,0.0,0.0,36,0.00,CLR,OVC,0.00,WeatherDisplay:10.37,2013-03-22 13:44:00,
2013-03-22 08:49:00,25.0,1.1,30.12,NE,53,0.0,0.0,35,0.00,CLR,OVC,0.00,WeatherDisplay:10.37,2013-03-22 13:49:00,
2013-03-22 08:54:00,25.3,0.8,30.12,NE,50,0.0,0.0,34,0.00,CLR,OVC,0.00,WeatherDisplay:10.37,2013-03-22 13:54:00,
2013-03-22 08:59:00,25.9,1.3,30.12,NE,52,0.0,0.0,34,0.00,CLR,OVC,0.00,WeatherDisplay:10.37,2013-03-22 13:59:00,
2013-03-22 09:04:00,26.1,0.2,30.12,NE,52,0.0,0.0,32,0.00,CLR,OVC,0.00,WeatherDisplay:10.37,2013-03-22 14:04:00,
2013-03-22 09:09:00,26.4,0.5,30.12,NE,45,0.0,0.0,32,0.00,CLR,OVC,0.00,WeatherDisplay:10.37,2013-03-22 14:09:00,
2013-03-22 09:14:00,26.8,0.1,30.15,NNE,19,0.0,0.0,31,0.00,CLR,OVC,0.00,WeatherDisplay:10.37,2013-03-22 14:14:00,
2013-03-22 09:19:00,27.1,-1.7,30.15,ENE,57,0.0,0.0,28,0.00,CLR,OVC,0.00,WeatherDisplay:10.37,2013-03-22 14:19:00,
2013-03-22 09:24:00,27.7,-2.8,30.15,East,79,0.0,0.0,26,0.00,CLR,OVC,0.00,WeatherDisplay:10.37,2013-03-22 14:24:00,
2013-03-22 09:29:00,28.0,-5.1,30.15,SE,144,0.0,0.0,23,0.00,CLR,OVC,0.00,WeatherDisplay:10.37,2013-03-22 14:29:00,
2013-03-22 09:34:00,28.9,-7.2,30.15,SE,142,0.0,0.0,20,0.00,CLR,OVC,0.00,WeatherDisplay:10.37,2013-03-22 14:34:00,
2013-03-22 09:39:00,29.7,-6.6,30.15,ENE,70,0.0,0.0,20,0.00,CLR,OVC,0.00,WeatherDisplay:10.37,2013-03-22 14:39:00,
2013-03-22 09:44:00,30.0,-8.5,30.15,South,182,0.0,0.0,18,0.00,CLR,OVC,0.00,WeatherDisplay:10.37,2013-03-22 14:44:00,
2013-03-22 09:49:00,30.0,-8.5,30.15,SE,135,0.0,0.0,18,0.00,CLR,OVC,0.00,WeatherDisplay:10.37,2013-03-22 14:49:00,
2013-03-22 09:54:00,30.2,-8.3,30.15,SW,230,0.0,0.0,18,0.00,CLR,OVC,0.00,WeatherDisplay:10.37,2013-03-22 14:54:00,
2013-03-22 09:59:00,30.6,-8.0,30.15,ESE,115,3.5,0.0,18,0.00,CLR,OVC,0.00,WeatherDisplay:10.37,2013-03-22 14:59:00,
2013-03-22 10:04:00,31.1,-11.3,30.15,SE,141,0.0,0.0,15,0.00,CLR,OVC,0.00,WeatherDisplay:10.37,2013-03-22 15:04:00,
2013-03-22 10:09:00,31.6,-10.8,30.15,SSW,207,0.0,0.0,15,0.00,CLR,OVC,0.00,WeatherDisplay:10.37,2013-03-22 15:09:00,
2013-03-22 10:14:00,32.0,-10.5,30.15,South,172,0.0,0.0,15,0.00,CLR,OVC,0.00,WeatherDisplay:10.37,2013-03-22 15:14:00,
2013-03-22 10:19:00,32.0,-10.5,30.15,SSE,163,0.0,0.0,15,0.00,CLR,OVC,0.00,WeatherDisplay:10.37,2013-03-22 15:19:00,
2013-03-22 10:24:00,31.8,-10.7,30.15,East,89,0.0,0.0,15,0.00,CLR,OVC,0.00,WeatherDisplay:10.37,2013-03-22 15:24:00,
2013-03-22 10:29:00,31.6,-10.8,30.12,SSE,162,0.0,0.0,15,0.00,CLR,OVC,0.00,WeatherDisplay:10.37,2013-03-22 15:29:00,
2013-03-22 10:34:00,32.2,-10.4,30.12,NNE,29,0.0,0.0,15,0.00,CLR,OVC,0.00,WeatherDisplay:10.37,2013-03-22 15:34:00,
2013-03-22 10:39:00,32.4,-10.2,30.12,ENE,78,0.0,0.0,15,0.00,CLR,OVC,0.00,WeatherDisplay:10.37,2013-03-22 15:39:00,
2013-03-22 10:44:00,32.7,-10.0,30.12,NE,53,0.0,0.0,15,0.00,CLR,OVC,0.00,WeatherDisplay:10.37,2013-03-22 15:44:00,
2013-03-22 10:49:00,33.1,-9.7,30.12,South,183,0.0,0.0,15,0.00,CLR,OVC,0.00,WeatherDisplay:10.37,2013-03-22 15:49:00,
2013-03-22 10:54:00,33.6,-9.2,30.12,ESE,113,0.0,0.0,15,0.00,CLR,OVC,0.00,WeatherDisplay:10.37,2013-03-22 15:54:00,
2013-03-22 10:59:00,34.3,-8.6,30.12,SE,124,0.0,0.0,15,0.00,CLR,OVC,0.00,WeatherDisplay:10.37,2013-03-22 15:59:00,
2013-03-22 11:04:00,34.9,-8.2,30.12,ESE,121,0.0,0.0,15,0.00,CLR,OVC,0.00,WeatherDisplay:10.37,2013-03-22 16:04:00,
2013-03-22 11:09:00,35.4,-7.8,30.12,South,188,0.0,0.0,15,0.00,CLR,OVC,0.00,WeatherDisplay:10.37,2013-03-22 16:09:00,
2013-03-22 11:14:00,35.4,-7.8,30.12,WSW,253,0.0,0.0,15,0.00,CLR,OVC,0.00,WeatherDisplay:10.37,2013-03-22 16:14:00,
2013-03-22 11:19:00,34.7,-8.3,30.12,WSW,243,0.0,0.0,15,0.00,CLR,OVC,0.00,WeatherDisplay:10.37,2013-03-22 16:19:00,
2013-03-22 11:24:00,34.9,-8.2,30.12,NW,305,0.0,0.0,15,0.00,CLR,OVC,0.00,WeatherDisplay:10.37,2013-03-22 16:24:00,
2013-03-22 11:29:00,34.9,-8.2,30.12,NNW,331,0.0,0.0,15,0.00,CLR,OVC,0.00,WeatherDisplay:10.37,2013-03-22 16:29:00,
2013-03-22 11:34:00,35.1,-8.0,30.12,NNE,23,0.0,0.0,15,0.00,CLR,OVC,0.00,WeatherDisplay:10.37,2013-03-22 16:34:00,
2013-03-22 11:39:00,35.2,-7.9,30.12,WNW,292,0.0,0.0,15,0.00,CLR,OVC,0.00,WeatherDisplay:10.37,2013-03-22 16:39:00,
2013-03-22 11:44:00,35.6,-9.0,30.12,West,260,0.0,0.0,14,0.00,CLR,OVC,0.00,WeatherDisplay:10.37,2013-03-22 16:44:00,
2013-03-22 11:49:00,36.3,-8.4,30.12,West,262,0.0,0.0,14,0.00,CLR,OVC,0.00,WeatherDisplay:10.37,2013-03-22 16:49:00,
2013-03-22 11:54:00,36.5,-8.3,30.12,NNE,32,0.0,0.0,14,0.00,CLR,OVC,0.00,WeatherDisplay:10.37,2013-03-22 16:54:00,
2013-03-22 11:59:00,37.0,-7.9,30.12,NNE,19,2.3,0.0,14,0.00,CLR,OVC,0.00,WeatherDisplay:10.37,2013-03-22 16:59:00,
2013-03-22 12:04:00,37.4,-7.6,30.12,NW,319,3.5,0.0,14,0.00,CLR,OVC,0.00,WeatherDisplay:10.37,2013-03-22 17:04:00,
2013-03-22 12:09:00,37.2,-7.7,30.12,SW,227,0.0,0.0,14,0.00,CLR,OVC,0.00,WeatherDisplay:10.37,2013-03-22 17:09:00,
2013-03-22 12:14:00,37.2,-7.7,30.12,WSW,253,0.0,0.0,14,0.00,CLR,OVC,0.00,WeatherDisplay:10.37,2013-03-22 17:14:00,
2013-03-22 12:19:00,37.8,-7.3,30.12,West,278,0.0,0.0,14,0.00,CLR,OVC,0.00,WeatherDisplay:10.37,2013-03-22 17:19:00,
2013-03-22 12:24:00,37.9,-7.1,30.12,NW,306,3.5,0.0,14,0.00,CLR,OVC,0.00,WeatherDisplay:10.37,2013-03-22 17:24:00,
2013-03-22 12:29:00,37.9,-7.1,30.12,NW,316,0.0,0.0,14,0.00,CLR,OVC,0.00,WeatherDisplay:10.37,2013-03-22 17:29:00,
2013-03-22 12:34:00,37.8,-7.3,30.12,WNW,289,3.5,3.5,14,0.00,CLR,OVC,0.00,WeatherDisplay:10.37,2013-03-22 17:34:00,
2013-03-22 12:39:00,37.8,-7.3,30.12,North,1,8.1,0.0,14,0.00,CLR,OVC,0.00,WeatherDisplay:10.37,2013-03-22 17:39:00,
2013-03-22 12:44:00,37.9,-7.1,30.09,North,10,6.9,6.9,14,0.00,CLR,OVC,0.00,WeatherDisplay:10.37,2013-03-22 17:44:00,
2013-03-22 12:49:00,38.3,-6.8,30.09,North,353,8.1,8.1,14,0.00,CLR,OVC,0.00,WeatherDisplay:10.37,2013-03-22 17:49:00,
2013-03-22 12:54:00,38.5,-6.7,30.09,NW,325,2.3,0.0,14,0.00,CLR,OVC,0.00,WeatherDisplay:10.37,2013-03-22 17:54:00,
2013-03-22 12:59:00,38.5,-6.7,30.09,West,278,0.0,0.0,14,0.00,CLR,OVC,0.00,WeatherDisplay:10.37,2013-03-22 17:59:00,
2013-03-22 13:04:00,38.5,-6.7,30.09,WNW,301,0.0,0.0,14,0.00,CLR,OVC,0.00,WeatherDisplay:10.37,2013-03-22 18:04:00,
2013-03-22 13:09:00,39.2,-7.6,30.09,SE,129,0.0,0.0,13,0.00,CLR,OVC,0.00,WeatherDisplay:10.37,2013-03-22 18:09:00,
2013-03-22 13:14:00,39.9,-7.1,30.09,NE,56,0.0,0.0,13,0.00,CLR,OVC,0.00,WeatherDisplay:10.37,2013-03-22 18:14:00,
2013-03-22 13:19:00,40.6,-6.5,30.09,North,357,5.8,0.0,13,0.00,CLR,OVC,0.00,WeatherDisplay:10.37,2013-03-22 18:19:00,
2013-03-22 13:24:00,40.3,-6.8,30.09,NW,305,3.5,3.5,13,0.00,CLR,OVC,0.00,WeatherDisplay:10.37,2013-03-22 18:24:00,
2013-03-22 13:29:00,39.4,-7.5,30.09,NW,306,0.0,0.0,13,0.00,CLR,OVC,0.00,WeatherDisplay:10.37,2013-03-22 18:29:00,
2013-03-22 13:34:00,39.4,-7.5,30.09,NNW,341,0.0,0.0,13,0.00,CLR,OVC,0.00,WeatherDisplay:10.37,2013-03-22 18:34:00,
2013-03-22 13:39:00,40.1,-6.9,30.09,South,174,0.0,0.0,13,0.00,CLR,OVC,0.00,WeatherDisplay:10.37,2013-03-22 18:39:00,
2013-03-22 13:44:00,40.8,-6.3,30.09,NW,319,3.5,3.5,13,0.00,CLR,OVC,0.00,WeatherDisplay:10.37,2013-03-22 18:44:00,
2013-03-22 13:49:00,40.6,-6.5,30.09,NNW,334,0.0,0.0,13,0.00,CLR,OVC,0.00,WeatherDisplay:10.37,2013-03-22 18:49:00,
2013-03-22 13:54:00,41.0,-6.2,30.09,SSE,152,0.0,0.0,13,0.00,CLR,OVC,0.00,WeatherDisplay:10.37,2013-03-22 18:54:00,
2013-03-22 13:59:00,41.5,-5.8,30.09,NE,35,3.5,3.5,13,0.00,CLR,OVC,0.00,WeatherDisplay:10.37,2013-03-22 18:59:00,
2013-03-22 14:04:00,42.1,-5.3,30.09,North,9,2.3,2.3,13,0.00,CLR,OVC,0.00,WeatherDisplay:10.37,2013-03-22 19:04:00,
2013-03-22 14:09:00,42.1,-5.3,30.09,NNE,28,5.8,5.8,13,0.00,CLR,OVC,0.00,WeatherDisplay:10.37,2013-03-22 19:09:00,
2013-03-22 14:14:00,42.1,-5.3,30.09,North,9,4.6,0.0,13,0.00,CLR,OVC,0.00,WeatherDisplay:10.37,2013-03-22 19:14:00,
2013-03-22 14:19:00,42.3,-5.2,30.09,NW,316,0.0,0.0,13,0.00,CLR,OVC,0.00,WeatherDisplay:10.37,2013-03-22 19:19:00,
2013-03-22 14:24:00,43.0,-4.6,30.09,South,169,0.0,0.0,13,0.00,CLR,OVC,0.00,WeatherDisplay:10.37,2013-03-22 19:24:00,
2013-03-22 14:29:00,43.3,-4.3,30.06,West,276,0.0,0.0,13,0.00,CLR,OVC,0.00,WeatherDisplay:10.37,2013-03-22 19:29:00,
2013-03-22 14:34:00,43.0,-4.6,30.06,West,281,0.0,0.0,13,0.00,CLR,OVC,0.00,WeatherDisplay:10.37,2013-03-22 19:34:00,
2013-03-22 14:39:00,42.6,-4.9,30.06,North,357,0.0,0.0,13,0.00,CLR,OVC,0.00,WeatherDisplay:10.37,2013-03-22 19:39:00,
2013-03-22 14:44:00,42.6,-4.9,30.06,NW,311,4.6,0.0,13,0.00,CLR,OVC,0.00,WeatherDisplay:10.37,2013-03-22 19:44:00,
2013-03-22 14:49:00,42.8,-4.8,30.06,SW,222,0.0,0.0,13,0.00,CLR,OVC,0.00,WeatherDisplay:10.37,2013-03-22 19:49:00,
2013-03-22 14:54:00,43.5,-4.2,30.06,WSW,248,5.8,0.0,13,0.00,CLR,OVC,0.00,WeatherDisplay:10.37,2013-03-22 19:54:00,
2013-03-22 14:59:00,43.3,-4.3,30.06,South,187,3.5,3.5,13,0.00,CLR,OVC,0.00,WeatherDisplay:10.37,2013-03-22 19:59:00,
2013-03-22 15:04:00,43.0,-4.6,30.06,NW,318,0.0,0.0,13,0.00,CLR,OVC,0.00,WeatherDisplay:10.37,2013-03-22 20:04:00,
2013-03-22 15:09:00,43.0,-4.6,30.06,NE,36,0.0,0.0,13,0.00,CLR,OVC,0.00,WeatherDisplay:10.37,2013-03-22 20:09:00,
2013-03-22 15:14:00,43.2,-4.5,30.06,WNW,286,0.0,0.0,13,0.00,CLR,OVC,0.00,WeatherDisplay:10.37,2013-03-22 20:14:00,
2013-03-22 15:19:00,43.3,-4.3,30.06,North,353,6.9,6.9,13,0.00,CLR,OVC,0.00,WeatherDisplay:10.37,2013-03-22 20:19:00,
2013-03-22 15:25:00,43.3,-4.3,30.06,WSW,241,4.6,0.0,13,0.00,CLR,OVC,0.00,WeatherDisplay:10.37,2013-03-22 20:25:00,
2013-03-22 15:30:00,43.3,-4.3,30.06,NNW,336,5.8,0.0,13,0.00,CLR,OVC,0.00,WeatherDisplay:10.37,2013-03-22 20:30:00,
2013-03-22 15:35:00,43.2,-4.5,30.06,NNW,333,5.8,5.8,13,0.00,CLR,OVC,0.00,WeatherDisplay:10.37,2013-03-22 20:35:00,
2013-03-22 15:40:00,42.8,-4.8,30.06,NW,313,3.5,0.0,13,0.00,CLR,OVC,0.00,WeatherDisplay:10.37,2013-03-22 20:40:00,
2013-03-22 15:45:00,42.8,-4.8,30.06,WSW,243,0.0,0.0,13,0.00,CLR,OVC,0.00,WeatherDisplay:10.37,2013-03-22 20:45:00,
2013-03-22 15:50:00,43.0,-4.6,30.06,West,280,0.0,0.0,13,0.00,CLR,OVC,0.00,WeatherDisplay:10.37,2013-03-22 20:50:00,
2013-03-22 15:55:00,43.2,-4.5,30.06,NNW,337,5.8,5.8,13,0.00,CLR,OVC,0.00,WeatherDisplay:10.37,2013-03-22 20:55:00,
2013-03-22 16:00:00,42.8,-4.8,30.06,NNE,14,0.0,0.0,13,0.00,CLR,OVC,0.00,WeatherDisplay:10.37,2013-03-22 21:00:00,
2013-03-22 16:05:00,43.0,-4.6,30.06,NNE,19,0.0,0.0,13,0.00,CLR,OVC,0.00,WeatherDisplay:10.37,2013-03-22 21:05:00,
2013-03-22 16:10:00,43.3,-4.3,30.06,NNW,340,0.0,0.0,13,0.00,CLR,OVC,0.00,WeatherDisplay:10.37,2013-03-22 21:10:00,
2013-03-22 16:15:00,43.3,-4.3,30.06,North,6,3.5,0.0,13,0.00,CLR,OVC,0.00,WeatherDisplay:10.37,2013-03-22 21:15:00,
2013-03-22 16:20:00,43.0,-4.6,30.06,NNW,329,0.0,0.0,13,0.00,CLR,OVC,0.00,WeatherDisplay:10.37,2013-03-22 21:20:00,
2013-03-22 16:25:00,42.6,-4.9,30.06,North,353,5.8,5.8,13,0.00,CLR,OVC,0.00,WeatherDisplay:10.37,2013-03-22 21:25:00,
2013-03-22 16:30:00,42.3,-5.2,30.06,NE,37,0.0,0.0,13,0.00,CLR,OVC,0.00,WeatherDisplay:10.37,2013-03-22 21:30:00,
2013-03-22 16:35:00,42.1,-5.3,30.06,West,277,3.5,0.0,13,0.00,CLR,OVC,0.00,WeatherDisplay:10.37,2013-03-22 21:35:00,
2013-03-22 16:40:00,41.7,-5.6,30.06,West,280,0.0,0.0,13,0.00,CLR,OVC,0.00,WeatherDisplay:10.37,2013-03-22 21:40:00,
2013-03-22 16:45:00,41.5,-5.8,30.06,West,279,4.6,0.0,13,0.00,CLR,OVC,0.00,WeatherDisplay:10.37,2013-03-22 21:45:00,
2013-03-22 16:50:00,41.4,-5.9,30.06,NW,314,0.0,0.0,13,0.00,CLR,OVC,0.00,WeatherDisplay:10.37,2013-03-22 21:50:00,
2013-03-22 16:55:00,41.4,-5.9,30.06,West,281,0.0,0.0,13,0.00,CLR,OVC,0.00,WeatherDisplay:10.37,2013-03-22 21:55:00,
2013-03-22 17:00:00,41.5,-5.8,30.06,North,6,0.0,0.0,13,0.00,CLR,OVC,0.00,WeatherDisplay:10.37,2013-03-22 22:00:00,
2013-03-22 17:05:00,41.7,-5.6,30.06,NW,308,0.0,0.0,13,0.00,CLR,OVC,0.00,WeatherDisplay:10.37,2013-03-22 22:05:00,
2013-03-22 17:10:00,41.7,-5.6,30.06,NE,37,0.0,0.0,13,0.00,CLR,OVC,0.00,WeatherDisplay:10.37,2013-03-22 22:10:00,
2013-03-22 17:15:00,41.7,-5.6,30.06,NE,49,0.0,0.0,13,0.00,CLR,OVC,0.00,WeatherDisplay:10.37,2013-03-22 22:15:00,
2013-03-22 17:20:00,41.7,-5.6,30.06,NW,317,0.0,0.0,13,0.00,CLR,OVC,0.00,WeatherDisplay:10.37,2013-03-22 22:20:00,
2013-03-22 17:25:00,41.7,-5.6,30.06,North,353,0.0,0.0,13,0.00,CLR,OVC,0.00,WeatherDisplay:10.37,2013-03-22 22:25:00,
2013-03-22 17:30:00,41.9,-5.5,30.06,West,260,0.0,0.0,13,0.00,CLR,OVC,0.00,WeatherDisplay:10.37,2013-03-22 22:30:00,
2013-03-22 17:35:00,42.3,-5.2,30.06,NNE,15,5.8,0.0,13,0.00,CLR,OVC,0.00,WeatherDisplay:10.37,2013-03-22 22:35:00,
2013-03-22 17:40:00,41.9,-5.5,30.06,NW,315,2.3,0.0,13,0.00,CLR,OVC,0.00,WeatherDisplay:10.37,2013-03-22 22:40:00,
2013-03-22 17:45:00,41.5,-5.8,30.06,North,2,0.0,0.0,13,0.00,CLR,OVC,0.00,WeatherDisplay:10.37,2013-03-22 22:45:00,
2013-03-22 17:50:00,41.2,-6.1,30.06,NNE,24,3.5,0.0,13,0.00,CLR,OVC,0.00,WeatherDisplay:10.37,2013-03-22 22:50:00,
2013-03-22 17:55:00,40.6,-6.5,30.06,NNW,331,8.1,8.1,13,0.00,CLR,OVC,0.00,WeatherDisplay:10.37,2013-03-22 22:55:00,
2013-03-22 18:00:00,40.3,-6.8,30.06,NNE,26,3.5,0.0,13,0.00,CLR,OVC,0.00,WeatherDisplay:10.37,2013-03-22 23:00:00,
2013-03-22 18:05:00,39.9,-7.1,30.06,NE,44,3.5,0.0,13,0.00,CLR,OVC,0.00,WeatherDisplay:10.37,2013-03-22 23:05:00,
2013-03-22 18:10:00,39.6,-7.4,30.06,North,3,5.8,5.8,13,0.00,CLR,OVC,0.00,WeatherDisplay:10.37,2013-03-22 23:10:00,
2013-03-22 18:15:00,39.4,-7.5,30.06,NW,320,3.5,0.0,13,0.00,CLR,OVC,0.00,WeatherDisplay:10.37,2013-03-22 23:15:00,
2013-03-22 18:20:00,39.2,-7.6,30.06,NNE,18,0.0,0.0,13,0.00,CLR,OVC,0.00,WeatherDisplay:10.37,2013-03-22 23:20:00,
2013-03-22 18:25:00,38.8,-6.4,30.06,NNE,14,2.3,0.0,14,0.00,CLR,OVC,0.00,WeatherDisplay:10.37,2013-03-22 23:25:00,
2013-03-22 18:30:00,38.7,-6.5,30.06,NW,315,0.0,0.0,14,0.00,CLR,OVC,0.00,WeatherDisplay:10.37,2013-03-22 23:30:00,
2013-03-22 18:35:00,38.3,-6.8,30.06,NW,325,0.0,0.0,14,0.00,CLR,OVC,0.00,WeatherDisplay:10.37,2013-03-22 23:35:00,
2013-03-22 18:40:00,38.1,-7.0,30.06,North,357,3.5,0.0,14,0.00,CLR,OVC,0.00,WeatherDisplay:10.37,2013-03-22 23:40:00,
2013-03-22 18:45:00,37.9,-7.1,30.06,North,1,0.0,0.0,14,0.00,CLR,OVC,0.00,WeatherDisplay:10.37,2013-03-22 23:45:00,
2013-03-22 18:50:00,37.8,-7.3,30.06,WNW,302,0.0,0.0,14,0.00,CLR,OVC,0.00,WeatherDisplay:10.37,2013-03-22 23:50:00,
2013-03-22 18:55:00,37.6,-7.4,30.06,NW,325,0.0,0.0,14,0.00,CLR,OVC,0.00,WeatherDisplay:10.37,2013-03-22 23:55:00,
2013-03-22 19:00:00,37.4,-7.6,30.09,NNW,338,0.0,0.0,14,0.00,CLR,OVC,0.00,WeatherDisplay:10.37,2013-03-23 00:00:00,
2013-03-22 19:05:00,37.0,-7.9,30.09,North,350,0.0,0.0,14,0.00,CLR,OVC,0.00,WeatherDisplay:10.37,2013-03-23 00:05:00,
2013-03-22 19:10:00,36.9,-8.0,30.09,NNW,337,0.0,0.0,14,0.00,FEW,OVC,0.00,WeatherDisplay:10.37,2013-03-23 00:10:00,
2013-03-22 19:15:00,36.5,-8.3,30.06,NNW,342,0.0,0.0,14,0.00,FEW,OVC,0.00,WeatherDisplay:10.37,2013-03-23 00:15:00,
2013-03-22 19:20:00,36.3,-8.4,30.06,North,3,0.0,0.0,14,0.00,FEW,OVC,0.00,WeatherDisplay:10.37,2013-03-23 00:20:00,
2013-03-22 19:25:00,36.1,-8.6,30.06,NE,41,0.0,0.0,14,0.00,FEW,OVC,0.00,WeatherDisplay:10.37,2013-03-23 00:25:00,
2013-03-22 19:30:00,35.8,-8.9,30.09,NNW,344,0.0,0.0,14,0.00,FEW,OVC,0.00,WeatherDisplay:10.37,2013-03-23 00:30:00,
2013-03-22 19:35:00,35.6,-9.0,30.09,North,0,0.0,0.0,14,0.00,FEW,OVC,0.00,WeatherDisplay:10.37,2013-03-23 00:35:00,
2013-03-22 19:40:00,35.4,-7.8,30.09,WNW,298,0.0,0.0,15,0.00,FEW,OVC,0.00,WeatherDisplay:10.37,2013-03-23 00:40:00,
2013-03-22 19:45:00,35.4,-7.8,30.09,North,357,5.8,5.8,15,0.00,FEW,OVC,0.00,WeatherDisplay:10.37,2013-03-23 00:45:00,
2013-03-22 19:50:00,35.4,-7.8,30.09,NNW,340,0.0,0.0,15,0.00,FEW,OVC,0.00,WeatherDisplay:10.37,2013-03-23 00:50:00,
2013-03-22 19:55:00,35.4,-7.8,30.09,North,5,0.0,0.0,15,0.00,FEW,OVC,0.00,WeatherDisplay:10.37,2013-03-23 00:55:00,
2013-03-22 20:00:00,35.4,-7.8,30.09,NW,322,0.0,0.0,15,0.00,FEW,OVC,0.00,WeatherDisplay:10.37,2013-03-23 01:00:00,
2013-03-22 20:05:00,35.2,-7.9,30.09,NNW,342,0.0,0.0,15,0.00,FEW,OVC,0.00,WeatherDisplay:10.37,2013-03-23 01:05:00,
2013-03-22 20:10:00,35.2,-7.9,30.09,North,353,0.0,0.0,15,0.00,BKN,OVC,0.00,WeatherDisplay:10.37,2013-03-23 01:10:00,
2013-03-22 20:15:00,35.1,-8.0,30.09,North,353,0.0,0.0,15,0.00,BKN,OVC,0.00,WeatherDisplay:10.37,2013-03-23 01:15:00,
2013-03-22 20:20:00,35.1,-8.0,30.09,NNW,339,0.0,0.0,15,0.00,BKN,OVC,0.00,WeatherDisplay:10.37,2013-03-23 01:20:00,
2013-03-22 20:25:00,35.1,-8.0,30.09,North,353,0.0,0.0,15,0.00,BKN,OVC,0.00,WeatherDisplay:10.37,2013-03-23 01:25:00,
2013-03-22 20:30:00,35.1,-8.0,30.09,WNW,302,0.0,0.0,15,0.00,BKN,OVC,0.00,WeatherDisplay:10.37,2013-03-23 01:30:00,
2013-03-22 20:35:00,34.9,-8.2,30.09,North,0,0.0,0.0,15,0.00,BKN,OVC,0.00,WeatherDisplay:10.37,2013-03-23 01:35:00,
2013-03-22 20:40:00,34.9,-8.2,30.09,NW,318,0.0,0.0,15,0.00,BKN,OVC,0.00,WeatherDisplay:10.37,2013-03-23 01:40:00,
2013-03-22 20:45:00,34.7,-8.3,30.09,NNW,331,0.0,0.0,15,0.00,BKN,OVC,0.00,WeatherDisplay:10.37,2013-03-23 01:45:00,
2013-03-22 20:50:00,34.7,-8.3,30.09,North,357,0.0,0.0,15,0.00,BKN,OVC,0.00,WeatherDisplay:10.37,2013-03-23 01:50:00,
2013-03-22 20:55:00,34.5,-8.5,30.09,NNW,332,0.0,0.0,15,0.00,BKN,OVC,0.00,WeatherDisplay:10.37,2013-03-23 01:55:00,
2013-03-22 21:00:00,34.5,-8.5,30.09,North,357,0.0,0.0,15,0.00,BKN,OVC,0.00,WeatherDisplay:10.37,2013-03-23 02:00:00,
2013-03-22 21:05:00,34.5,-8.5,30.09,NE,38,0.0,0.0,15,0.00,BKN,OVC,0.00,WeatherDisplay:10.37,2013-03-23 02:05:00,
2013-03-22 21:10:00,34.3,-8.6,30.09,NNE,18,0.0,0.0,15,0.00,BKN,OVC,0.00,WeatherDisplay:10.37,2013-03-23 02:10:00,
2013-03-22 21:15:00,34.3,-8.6,30.09,NNE,30,0.0,0.0,15,0.00,BKN,OVC,0.00,WeatherDisplay:10.37,2013-03-23 02:15:00,
2013-03-22 21:20:00,34.3,-8.6,30.09,NE,43,0.0,0.0,15,0.00,BKN,OVC,0.00,WeatherDisplay:10.37,2013-03-23 02:20:00,
2013-03-22 21:25:00,34.3,-8.6,30.09,NNE,32,2.3,0.0,15,0.00,BKN,OVC,0.00,WeatherDisplay:10.37,2013-03-23 02:25:00,
2013-03-22 21:30:00,34.3,-8.6,30.09,NNE,15,0.0,0.0,15,0.00,BKN,OVC,0.00,WeatherDisplay:10.37,2013-03-23 02:30:00,
2013-03-22 21:35:00,34.2,-8.8,30.09,NE,35,0.0,0.0,15,0.00,BKN,OVC,0.00,WeatherDisplay:10.37,2013-03-23 02:35:00,
2013-03-22 21:40:00,34.2,-8.8,30.09,NNE,28,0.0,0.0,15,0.00,BKN,OVC,0.00,WeatherDisplay:10.37,2013-03-23 02:40:00,
2013-03-22 21:45:00,34.2,-8.8,30.09,NNE,23,0.0,0.0,15,0.00,BKN,OVC,0.00,WeatherDisplay:10.37,2013-03-23 02:45:00,
2013-03-22 21:50:00,34.2,-8.8,30.09,NNE,28,0.0,0.0,15,0.00,BKN,OVC,0.00,WeatherDisplay:10.37,2013-03-23 02:50:00,
2013-03-22 21:55:00,34.2,-8.8,30.09,NE,36,0.0,0.0,15,0.00,BKN,OVC,0.00,WeatherDisplay:10.37,2013-03-23 02:55:00,
2013-03-22 22:00:00,34.2,-8.8,30.09,NNE,27,0.0,0.0,15,0.00,BKN,OVC,0.00,WeatherDisplay:10.37,2013-03-23 03:00:00,
2013-03-22 22:05:00,34.2,-8.8,30.09,NNE,14,0.0,0.0,15,0.00,BKN,OVC,0.00,WeatherDisplay:10.37,2013-03-23 03:05:00,
2013-03-22 22:10:00,34.0,-8.9,30.09,NNE,14,0.0,0.0,15,0.00,BKN,OVC,0.00,WeatherDisplay:10.37,2013-03-23 03:10:00,
2013-03-22 22:15:00,33.8,-9.1,30.09,NE,36,0.0,0.0,15,0.00,BKN,OVC,0.00,WeatherDisplay:10.37,2013-03-23 03:15:00,
2013-03-22 22:20:00,33.6,-9.2,30.09,NE,35,0.0,0.0,15,0.00,BKN,OVC,0.00,WeatherDisplay:10.37,2013-03-23 03:20:00,
2013-03-22 22:25:00,33.4,-9.4,30.09,NNE,28,0.0,0.0,15,0.00,FEW,OVC,0.00,WeatherDisplay:10.37,2013-03-23 03:25:00,
2013-03-22 22:30:00,33.4,-9.4,30.09,ENE,74,2.3,0.0,15,0.00,FEW,OVC,0.00,WeatherDisplay:10.37,2013-03-23 03:30:00,
2013-03-22 22:35:00,33.6,-9.2,30.09,NE,44,0.0,0.0,15,0.00,FEW,OVC,0.00,WeatherDisplay:10.37,2013-03-23 03:35:00,
2013-03-22 22:40:00,33.4,-9.4,30.09,NNE,19,0.0,0.0,15,0.00,FEW,OVC,0.00,WeatherDisplay:10.37,2013-03-23 03:40:00,
2013-03-22 22:45:00,33.3,-9.5,30.09,NE,35,0.0,0.0,15,0.00,FEW,OVC,0.00,WeatherDisplay:10.37,2013-03-23 03:45:00,
2013-03-22 22:51:00,33.1,-9.7,30.09,NNE,33,0.0,0.0,15,0.00,FEW,OVC,0.00,WeatherDisplay:10.37,2013-03-23 03:51:00,
2013-03-22 22:56:00,32.9,-9.8,30.09,NE,48,0.0,0.0,15,0.00,FEW,OVC,0.00,WeatherDisplay:10.37,2013-03-23 03:56:00,
2013-03-22 23:00:00,32.7,-10.0,30.09,NE,48,3.5,0.0,15,0.00,FEW,OVC,0.00,WeatherDisplay:10.37,2013-03-23 04:00:00,
2013-03-22 23:01:00,32.7,-10.0,30.09,NE,35,0.0,0.0,15,0.00,FEW,OVC,0.00,WeatherDisplay:10.37,2013-03-23 04:01:00,
2013-03-22 23:06:00,32.5,-10.1,30.09,NE,36,0.0,0.0,15,0.00,FEW,OVC,0.00,WeatherDisplay:10.37,2013-03-23 04:06:00,
2013-03-22 23:07:00,32.5,-10.1,30.09,NE,38,0.0,0.0,15,0.00,FEW,OVC,0.00,WeatherDisplay:10.37,2013-03-23 04:07:00,
2013-03-22 23:12:00,32.4,-10.2,30.09,NE,39,4.6,0.0,15,0.00,FEW,OVC,0.00,WeatherDisplay:10.37,2013-03-23 04:12:00,
2013-03-22 23:17:00,32.2,-10.4,30.09,North,11,0.0,0.0,15,0.00,FEW,OVC,0.00,WeatherDisplay:10.37,2013-03-23 04:17:00,
2013-03-22 23:22:00,32.0,-10.5,30.09,NE,49,0.0,0.0,15,0.00,BKN,OVC,0.00,WeatherDisplay:10.37,2013-03-23 04:22:00,
2013-03-22 23:27:00,32.0,-10.5,30.09,NNE,23,5.8,5.8,15,0.00,BKN,OVC,0.00,WeatherDisplay:10.37,2013-03-23 04:27:00,
2013-03-22 23:32:00,31.8,-10.7,30.09,NNE,27,0.0,0.0,15,0.00,BKN,OVC,0.00,WeatherDisplay:10.37,2013-03-23 04:32:00,
2013-03-22 23:37:00,31.6,-10.8,30.09,NNE,18,0.0,0.0,15,0.00,BKN,OVC,0.00,WeatherDisplay:10.37,2013-03-23 04:37:00,
2013-03-22 23:42:00,31.5,-11.0,30.09,NE,43,0.0,0.0,15,0.00,BKN,OVC,0.00,WeatherDisplay:10.37,2013-03-23 04:42:00,
2013-03-22 23:47:00,31.3,-11.1,30.09,NE,39,0.0,0.0,15,0.00,BKN,OVC,0.00,WeatherDisplay:10.37,2013-03-23 04:47:00,
2013-03-22 23:52:00,31.3,-11.1,30.09,North,10,0.0,0.0,15,0.00,BKN,OVC,0.00,WeatherDisplay:10.37,2013-03-23 04:52:00,
2013-03-22 23:57:00,31.3,-11.1,30.09,NE,38,0.0,0.0,15,0.00,BKN,OVC,0.00,WeatherDisplay:10.37,2013-03-23 04:57:00,